Location: Drouwen
(52.9559°N, 6.7974°E)
Time: 20:37:01
(UTC+00:00)

BlueWalker 3 - Pass Details

Date: 15 May 2026
Orbit: 447 x 456 km, 53.2° (Epoch: 6 June)

Event Time Altitude Azimuth Distance (km) Brightness Sun altitude
Exits shadow 23:04:55 11° 99° (E) 1,488 4.2 -17.8°
Drops below altitude 10° 23:05:13 10° 95° (E) 1,574 4.3 -17.8°
Sets 23:07:47 0° 77° (ENE) 2,450 5.5 -17.8°
